Regional Weather Roundup
Issued by NWS

Home | Current Version | Previous Version | Text Only | Print | Product List | Glossary On
Versions: 1 2 3 4 5 6 7 8 9 10 11 12 13 14 15 16 17 18 19 20 21 22 23 24 25 26 27 28
000
ASUS45 KTFX 251110
RWRMT
MONTANA REGIONAL WEATHER ROUNDUP
NATIONAL WEATHER SERVICE GREAT FALLS MT
500 AM MDT FRI MAY 25 2018

NOTE: "FAIR" INDICATES FEW OR NO CLOUDS BELOW 12000 FEET WITH NO
SIGNIFICANT WEATHER AND/OR OBSTRUCTIONS TO VISIBILITY.

MTZ001>007-043-251200-
WEST OF THE DIVIDE

CITY           SKY/WX    TMP DP  RH WIND       PRES   REMARKS
KALISPELL      FAIR      46  46 100 CALM      29.98S FOG
MISSOULA       FAIR      52  47  83 CALM      30.02R
BUTTE          FAIR      43  40  89 E5        30.11S
MULLAN PASS    FAIR      50  47  89 S5        30.09F
ANACONDA         N/A     46  43  87 SW6       30.08S
DEER LODGE       N/A     46  45  93 CALM      30.09S
HAMILTON         N/A     55  46  71 MISG      30.03S
RONAN            N/A     50  48  93 CALM      30.00S
$$

MTZ008-052>055-251200-
SOUTHWEST MONTANA

CITY           SKY/WX    TMP DP  RH WIND       PRES   REMARKS
BOZEMAN        FAIR      48  44  86 SE6       30.06S
DILLON         FAIR      47  44  90 S10       30.10R
ENNIS          CLEAR     45  41  87 CALM      30.13F
W YELLOWSTONE  FOG       43  43 100 CALM      30.17S VSB 1/4
$$

MTZ009-010-012-014-046-048-049-054-251200-
EAST SLOPES AND CENTRAL MONTANA

CITY           SKY/WX    TMP DP  RH WIND       PRES   REMARKS
CUT BANK       FAIR      53  45  74 W9        29.92R
GREAT FALLS    FAIR      54  46  74 SW13      29.95S
MALMSTROM AFB  FAIR      50  46  86 SW9       29.94S
HELENA         FAIR      54  46  74 S5        30.01S
CHOTEAU          N/A     59  43  55 SW9       29.96S
FAIRFIELD      FAIR      53  43  66 CALM      29.94S
WHITE SULPHUR    N/A     48  43  81 S8        30.04S
$$

MTZ011-013-016-021-045-047-050-051-251200-
NORTH CENTRAL MONTANA

CITY           SKY/WX    TMP DP  RH WIND       PRES   REMARKS
HAVRE          FAIR      61  46  57 SW17      29.84S
LEWISTOWN      FAIR      56  45  66 VRB7      29.97S
N BAR RANCH    FAIR      52  43  71 W8        29.99F
CHINOOK          N/A     64  46  52 SW10      29.82
$$

MTZ017>020-022>027-061-062-251200-
NORTHEAST MONTANA

CITY           SKY/WX    TMP DP  RH WIND       PRES   REMARKS
GLASGOW        FAIR      61  49  64 W12       29.78R
GLENDIVE       FAIR      59  52  77 SW5       29.83S
JORDAN           N/A     55  50  83 W8        29.85R
MALTA          CLEAR     57  48  72 W8        29.78S
SIDNEY         FAIR      57  55  93 CALM      29.77S
WOLF POINT     FAIR      57  52  83 W9        29.77S
PLENTYWOOD       N/A     63  52  67 CALM      29.72S
POPLAR           N/A     57  52  82 W3        29.76S
$$

MTZ028>42-056>058-251200-
SOUTHCENTRAL AND SOUTHEAST MONTANA

CITY           SKY/WX    TMP DP  RH WIND       PRES   REMARKS
BAKER          FAIR      55  53  93 W8        29.89R
BILLINGS       FAIR      59  48  67 SW16      29.97S
LIVINGSTON     FAIR      52  46  80 NW8       30.04S
MILES CITY     FAIR      59  55  87 W6        29.88S
BIG TIMBER     CLEAR     55  46  71 W15       30.03S
LAUREL           N/A     54  48  82 W7        29.99S
$$

REGIONAL REPORTS...DAKOTAS

CITY           SKY/WX    TMP DP  RH WIND       PRES   REMARKS
WILLISTON      FAIR      58  55  90 SW8       29.74S
MINOT          FAIR      63  53  70 SW13      29.69F
DICKINSON      FAIR      57  51  80 W8        29.80F
BEACH          FAIR      59  54  82 SW15      29.86F
CROSBY         FAIR      59  59 100 SW14      29.69S
TIOGA          FAIR      57  57 100 CALM      29.74F
WATFORD CITY   FAIR      55  55 100 SW6       29.75F
BISMARCK       FAIR      59  55  87 W6        29.78S
GRAND FORKS    FAIR      62  55  77 SW7       29.66F
FARGO          FAIR      61  56  83 SW3       29.71S
BUFFALO SD       N/A     58  49  72 W9        29.83S
RAPID CITY     FAIR      56  51  84 NW8       29.91S
$$

REGIONAL REPORTS...WYOMING/IDAHO/WASHINGTON

CITY           SKY/WX    TMP DP  RH WIND       PRES   REMARKS
GILLETTE       FAIR      49  45  86 SW5       30.01S
SHERIDAN       FAIR      51  46  83 CALM      30.00S
BUFFALO WY     FAIR      54  45  71 W9        30.05S
IDAHO FALLS    FAIR      44  44 100 NW6       30.06F
SALMON         FAIR      45  44  97 CALM      30.09S
BOISE          FAIR      61  49  64 NE8       29.94R
SPOKANE        FAIR      60  54  80 S6        29.93S
$$

REGIONAL REPORTS...ALBERTA

CITY           SKY/WX    TMP DP  RH WIND       PRES   REMARKS
CALGARY        PTCLDY    55  43  62 SW6       29.88S
CARDSTON         N/A     59  43  55 SW7         N/A
EDMONTON       CLEAR     54  50  87 W7        29.76S
FORT MCMURRAY  MOCLDY    61  54  77 SE3       29.65R
HIGH LEVEL     CLEAR     52  50  93 NW3       29.68R
LETHBRIDGE     CLEAR     59  45  58 W9G17     29.87R
LLOYDMINSTER   CLOUDY    57  54  88 W12       29.68R
MEDICINE HAT   CLEAR     52  46  82 SW7       29.81R
MILK RIVER       N/A     54  45  71 W13         N/A
PEACE RIVER    PTCLDY    55  39  54 N2        29.77R
PINCHER CREEK    N/A     54  45  71 W6        29.94S
WATERTON GATE    N/A     59  43  55 SW16G23     N/A
$$

REGIONAL REPORTS...SASKATCHEWAN

CITY           SKY/WX    TMP DP  RH WIND       PRES   REMARKS
CORONACH         N/A     59  48  67 W13         N/A
ESTEVAN        PTCLDY    55  54  94 SW10      29.67F
MOOSE JAW        N/A     55  50  82 W10         N/A
PRINCE ALBERT  FOG       55  55 100 VRB2      29.58S VSB 1/2
REGINA         PTCLDY    54  50  87 W9        29.65R
ROCKGLEN         N/A     55  48  76 W14         N/A
SASKATOON      MOCLDY    55  54  94 SW9       29.62F
SWIFT CURRENT  CLEAR     54  48  82 W14       29.75R
VAL MARIE        N/A     55  45  67 NW10        N/A
$$




USA.gov is the U.S. government's official web portal to all federal, state and local government web resources and services.